Home > Time Zones > World Clock > Weather > Iran > Ahvaz > Past weeks

Flag for Iran Weather past 2 weeks in Ahvaz, Iran

Now
99 °F

Sunny.


Feels Like: 95 °F
Forecast: 75 / 105 °F
Wind: 7 mph from West

Location: Ahwaz

Current Time: Sep 17, 2014 at 8:51:35 PM

Latest Report: Sep 17, 2014 at 8:00 PM


Visibility: 10 mi

Pressure: 29.59 "Hg

Humidity: 19%

Dew point: 50 °F

Location of AhvazLocation

Historic Weather in Ahvaz — Graph

°F

Ahvaz temperature yesterday

Maximum temperature yesterday: 111 °F (at 5:00 PM)
Minimum temperature yesterday: 77 °F (at 7:30 AM)
Average temperature yesterday: 94 °F

Past Weeks' High & Low Weather Summary

 TemperatureHumidityPressure
High117 °F (Sep 3, 3:30 PM)75% (Sep 4, 9:00 AM)29.65 "Hg (Sep 4, 9:00 AM)
Low73 °F (Sep 15, 6:30 AM)8% (Sep 9, 4:30 PM)29.45 "Hg (Sep 5, 3:30 PM)
Average97 °F25%29.57 "Hg
* Reported Sep 2 7:30 PM — Sep 17 7:30 PM, Ahvaz, Weather by CustomWeather, © 2014

Note: Actual official high and low records may vary slightly from our data, if they occured in-between our weather recording intervals... More about our weather records

Advertising

Ahvaz weather history for previous 24 hours

 ConditionsComfort  
Time TempWeatherWind HumidityBarometerVisibility
7:30 PM
Sep 17
100 °FSunny.12 mph18%29.59 "Hg10 mi
7:00 PM102 °FSunny.12 mph18%29.59 "Hg10 mi
6:00 PM106 °FSunny.9 mph15%29.59 "Hg10 mi
5:30 PM108 °FSunny.9 mph15%29.59 "Hg10 mi
5:00 PM108 °FSunny.7 mph15%29.59 "Hg10 mi
4:30 PM108 °FSunny.2 mph15%29.59 "Hg10 mi
4:00 PM106 °FSunny.5 mph17%29.59 "Hg10 mi
3:30 PM106 °FSunny.5 mph17%29.59 "Hg10 mi
3:00 PM108 °FSunny.9 mph17%29.62 "Hg10 mi
2:30 PM106 °FSunny.7 mph18%29.62 "Hg10 mi
1:30 PM104 °FSunny.5 mph20%29.62 "Hg10 mi
1:00 PM106 °FSunny.5 mph18%29.62 "Hg10 mi
11:30 AM100 °FSunny.7 mph24%29.62 "Hg10 mi
11:00 AM99 °FSunny.5 mph25%29.62 "Hg10 mi
10:00 AM93 °FSunny.No wind30%29.62 "Hg10 mi
9:30 AM91 °FSunny.No wind30%29.62 "Hg10 mi
9:00 AM88 °FSunny.No wind27%29.62 "Hg10 mi
8:30 AM82 °FSunny.No wind32%29.62 "Hg10 mi
8:00 AM79 °FClear.No wind37%29.62 "Hg10 mi
7:30 AM77 °FClear.2 mph44%29.59 "Hg10 mi
6:30 AM79 °FClear.2 mph34%29.59 "Hg5 mi
5:30 AM79 °FClear.No wind39%29.56 "Hg5 mi
1:00 AM86 °FClear.No wind31%29.59 "Hg5 mi
12:00 AM88 °FClear.No wind29%29.59 "Hg5 mi
11:30 PM
Sep 16
91 °FClear.No wind26%29.59 "Hg5 mi
11:00 PM91 °FClear.No wind32%29.59 "Hg5 mi
10:30 PM91 °FClear.5 mph38%29.59 "Hg5 mi
10:00 PM91 °FClear.No wind32%29.56 "Hg5 mi
9:30 PM90 °FClear.No wind33%29.56 "Hg5 mi
9:00 PM91 °FClear.5 mph34%29.56 "Hg5 mi
8:00 PM97 °FSunny.2 mph25%29.56 "Hg5 mi
Weather by CustomWeather, © 2014

See weather overviewHow to use our weather pages